Hourly Data Report for October 01, 2017

All times are specified in Local Standard Time (LST). Add 1 hour to adjust for Daylight Saving Time where and when it is observed.

HALL BEACH A
NUNAVUT

68°46'33.000" N
81°14'33.000" W
9.10 m
2402354
71293
YUX

Download Data

Hourly Data (October 2017)
Hourly Data Report for October 1, 2017
Temp Definition
°C
Dew Point Temp Definition
°C
Rel Hum Definition
%
Wind Dir Definition
10's deg

Wind Spd Definition
km/h
Visibility Definition
km
Stn Press Definition
kPa
Hmdx Definition


Wind Chill Definition


Weather Definition


TIME
00:00 Legend Double Dagger -4.5 -6.4 87 32 28 16.1 101.24   -12 LegendNANA
01:00 Legend Double Dagger -5.0 -6.7 88 32 30 16.1 101.27   -13 LegendNANA
02:00 Legend Double Dagger -5.0 -6.9 87 32 34 16.1 101.33   -13 LegendNANA
03:00 Legend Double Dagger -5.2 -7.3 85 32 39 16.1 101.37   -14 LegendNANA
04:00 Legend Double Dagger -5.4 -7.9 83 32 37 16.1 101.41   -14 LegendNANA
05:00 Legend Double Dagger -5.5 -7.9 83 32 35 16.1 101.44   -14 LegendNANA
06:00 Legend Double Dagger -5.7 -8.0 84 32 37 16.1 101.50   -15 LegendNANA
07:00 Legend Double Dagger -6.3 -8.3 86 32 24 16.1 101.53   -14 LegendNANA
08:00 Legend Double Dagger -5.7 -7.8 85 32 18 16.1 101.58   -12 LegendNANA
09:00 Legend Double Dagger -4.5 -7.0 83 31 30 16.1 101.55   -12 LegendNANA
10:00 Legend Double Dagger -4.0 -6.8 81 32 32 16.1 101.56   -12 LegendNANA
11:00 Legend Double Dagger -3.5 -6.6 79 32 32 16.1 101.54   -11 LegendNANA
12:00 Legend Double Dagger -3.1 -6.2 79 31 34 16.1 101.58   -11 LegendNANA
13:00 Legend Double Dagger -2.8 -5.8 80 32 34 16.1 101.60   -11 LegendNANA
14:00 Legend Double Dagger -2.7 -5.7 80 32 35 16.1 101.64   -11 LegendNANA
15:00 Legend Double Dagger -2.3 -5.0 82 30 37 16.1 101.67   -10 LegendNANA
16:00 Legend Double Dagger -3.3 -5.6 84 30 34 16.1 101.68   -11 LegendNANA
17:00 Legend Double Dagger -3.5 -5.2 88 30 24 16.1 101.68   -10 LegendNANA
18:00 Legend Double Dagger -3.7 -5.3 89 31 28 16.1 101.68   -11 LegendNANA
19:00 Legend Double Dagger -4.0 -5.3 91 29 22 16.1 101.70   -11 LegendNANA
20:00 Legend Double Dagger -3.8 -5.2 90 30 17 16.1 101.65   -10 LegendNANA
21:00 Legend Double Dagger -4.2 -5.3 92 27 13 16.1 101.60   -9 LegendNANA
22:00 Legend Double Dagger -4.3 -5.3 93 23 11 16.1 101.54   -9 LegendNANA
23:00 Legend Double Dagger -3.8 -4.9 92 21 11 16.1 101.42   -8 LegendNANA

Notes on Data Quality.

Legend

  • E = Estimated
  • M = Missing
  • NA = Not Available
  • ‡ = Partner data that is not subject to review by the National Climate Archives
Date modified: